Flag for U.S.A. Weather past 2 weeks in Davenport, Iowa, U.S.A.

Now
51 °F

Sunny.


Feels Like: 47 °F
Forecast: 38 / 50 °F
Wind: 12 mph from South

Location: Davenport Municipal Airport

Current Time: Dec 26, 2014 at 4:18:52 PM

Latest Report: Dec 26, 2014 at 2:52 PM


Visibility: 10 mi

Pressure: 29.96 "Hg

Humidity: 54%

Dew point: 35 °F

Location of DavenportLocation

Historic Weather in Davenport — Graph

°F

Davenport temperature yesterday

Maximum temperature yesterday: 47 °F (at 2:52 PM)
Minimum temperature yesterday: 32 °F (at 1:52 AM)
Average temperature yesterday: 38 °F

Past Weeks' High & Low Weather Summary

 TemperatureHumidityPressure
High52 °F (Dec 14, 2:52 PM)97% (Dec 14, 7:52 AM)30.38 "Hg (Dec 14, 7:52 AM)
Low14 °F (Dec 17, 9:52 PM)52% (Dec 25, 2:52 PM)29.46 "Hg (Dec 23, 12:01 AM)
Average35 °F82%30.03 "Hg
* Reported Dec 11 2:52 PM — Dec 26 2:52 PM, Davenport, Weather by CustomWeather, © 2014

Note: Actual official high and low records may vary slightly from our data, if they occured in-between our weather recording intervals... More about our weather records

Advertising

Davenport weather history for previous 24 hours

 ConditionsComfort  
Time TempWeatherWind HumidityBarometerVisibility
2:52 PM
Dec 26
51 °FSunny.12 mph54%29.96 "Hg10 mi
1:52 PM50 °FSunny.7 mph57%29.94 "Hg10 mi
12:52 PM50 °FSunny.12 mph59%29.96 "Hg10 mi
11:52 AM48 °FSunny.15 mph63%29.98 "Hg10 mi
10:52 AM46 °FSunny.15 mph66%29.99 "Hg10 mi
9:52 AM44 °FSunny.16 mph68%30.00 "Hg10 mi
8:52 AM41 °FSunny.13 mph74%29.98 "Hg10 mi
7:52 AM40 °FSunny.14 mph73%29.96 "Hg10 mi
6:52 AM40 °FClear.14 mph73%29.94 "Hg10 mi
5:52 AM39 °FClear.16 mph76%29.93 "Hg10 mi
4:52 AM40 °FClear.20 mph73%29.93 "Hg10 mi
3:52 AM41 °FClear.20 mph70%29.92 "Hg10 mi
2:52 AM42 °FClear.16 mph68%29.91 "Hg10 mi
1:52 AM42 °FClear.20 mph68%29.91 "Hg10 mi
12:52 AM42 °FClear.23 mph68%29.90 "Hg10 mi
11:52 PM
Dec 25
41 °FClear.17 mph70%29.93 "Hg10 mi
10:52 PM41 °FClear.16 mph70%29.93 "Hg10 mi
9:52 PM40 °FClear.15 mph73%29.93 "Hg10 mi
8:52 PM40 °FClear.15 mph73%29.93 "Hg10 mi
7:52 PM41 °FClear.18 mph70%29.91 "Hg10 mi
6:52 PM42 °FClear.18 mph65%29.91 "Hg10 mi
5:52 PM41 °FClear.15 mph65%29.90 "Hg10 mi
4:52 PM43 °FClear.13 mph62%29.90 "Hg10 mi
Weather by CustomWeather, © 2014

See weather overviewHow to use our weather pages